This is the latest recevied weather packets stored in our database for station/object WP3OF. If no packets are shown the sender has not sent any weather packets the latest 1 day(s).
| Time | Temp. | Humidity | Pressure | Rain* | Wind** | Luminosity | Snow |
|---|---|---|---|---|---|---|---|
| 1836274784 | 24.44° C | 87% | 1017.3 hPa | 0 mm | 0.89 m/s, 261° | - | - |
| 1836274482 | 24.44° C | 87% | 1017.3 hPa | 0 mm | 1.34 m/s, 267° | - | - |
| 1836274336 | 24.44° C | 87% | 1017.4 hPa | 0 mm | 0.89 m/s, 192° | - | - |
| 1836274180 | 24.44° C | 88% | 1017.5 hPa | 0 mm | 1.34 m/s, 250° | - | - |
| 1836273875 | 24.44° C | 87% | 1017.5 hPa | 0 mm | 1.34 m/s, 208° | - | - |
| 1778031330 | - | - | - | 0 mm | 2.68 m/s, 187° | - | - |
| 1778031026 | - | - | - | 0 mm | 1.79 m/s, 189° | - | - |
| 1778030722 | - | - | - | 0 mm | 2.68 m/s, 200° | - | - |
| 1778030420 | - | - | - | 0 mm | 2.24 m/s, 199° | - | - |
| 1778030128 | - | - | - | 0 mm | 3.13 m/s, 189° | - | - |
| 1778029814 | - | - | - | 0 mm | 2.24 m/s, 181° | - | - |
| 1778029513 | - | - | - | 0 mm | 3.58 m/s, 201° | - | - |
| 1778029209 | - | - | - | 0 mm | 3.58 m/s, 206° | - | - |
| 1778028907 | - | - | - | 0 mm | 2.68 m/s, 199° | - | - |
| 1778028602 | - | - | - | 0 mm | 2.24 m/s, 204° | - | - |
| 1778028300 | - | - | - | 0 mm | 2.24 m/s, 183° | - | - |
| 1778027995 | - | - | - | 0 mm | 2.24 m/s, 189° | - | - |
| 1778027692 | - | - | - | 0 mm | 2.68 m/s, 206° | - | - |
| 1778027388 | - | - | - | 0 mm | 1.34 m/s, 161° | - | - |
| 1778027085 | - | - | - | 0 mm | 1.79 m/s, 190° | - | - |
| 1778026780 | - | - | - | 0 mm | 2.24 m/s, 210° | - | - |
| 1778026477 | - | - | - | 0 mm | 3.13 m/s, 190° | - | - |
| 1778026175 | - | - | - | 0 mm | 2.24 m/s, 200° | - | - |
| 1778025872 | - | - | - | 0 mm | 3.13 m/s, 213° | - | - |
| 1778025569 | - | - | - | 0 mm | 2.24 m/s, 205° | - | - |
* Rain latest hour (hover to see other rain measurements)
** Current wind speed in m/s (hover to see current wind gust speed)